Home   Weather   Blackpool   Past weeks

Flag for United Kingdom Past Weather in Blackpool, England, United Kingdom — Yesterday and Last 2 Weeks

Now
64 °F

Light rain. Broken clouds.


Feels Like: 64 °F
Forecast: 58 / 62 °F
Wind: 21 mph from Southwest

Location: Blackpool Airport

Current Time: Aug 15, 2018 at 7:31:55 pm

Latest Report: Aug 15, 2018 at 6:50 pm


Visibility: 4 mi

Pressure: 29.83 "Hg

Humidity: 100%

Dew Point: 64 °F

Location of BlackpoolLocation

Past Weather in Blackpool — Graph

°F

Blackpool Temperature Yesterday

Maximum temperature yesterday: 66 °F (at 1:20 pm)
Minimum temperature yesterday: 63 °F (at 6:20 am)
Average temperature yesterday: 65 °F

High & Low Weather Summary for the Past Weeks

 TemperatureHumidityPressure
High73 °F (Aug 5, 12:20 pm)100% (Aug 2, 9:50 am)30.30 "Hg (Aug 2, 9:50 am)
Low57 °F (Aug 5, 6:50 am)44% (Aug 11, 2:50 pm)29.68 "Hg (Aug 12, 3:50 pm)
Average65 °F81%29.99 "Hg
* Reported Jul 31 6:20 pm — Aug 15 6:20 pm, Blackpool. Weather by CustomWeather, © 2018

Note: Actual official high and low records may vary slightly from our data, if they occured in-between our weather recording intervals... More about our weather records

Advertising

Blackpool Weather History for the Previous 24 Hours

Scroll right to see more
 ConditionsComfort  
Time TempWeatherWind HumidityBarometerVisibility
6:20 pm
Wed, Aug 15
64 °FLight rain. Partly sunny.13 mph100%29.83 "Hg3 mi
5:50 pm64 °FBroken clouds.17 mph100%29.83 "HgN/A
5:20 pm66 °FLight rain. Broken clouds.16 mph94%29.83 "Hg2 mi
4:50 pm68 °FPartly sunny.23 mph88%29.86 "HgN/A
4:20 pm68 °FPartly sunny.21 mph88%29.86 "HgN/A
3:20 pm66 °FPartly sunny.20 mph94%29.89 "HgN/A
2:50 pm66 °FBroken clouds.18 mph94%29.89 "HgN/A
2:20 pm66 °FBroken clouds.20 mph94%29.89 "HgN/A
1:50 pm66 °FBroken clouds.18 mph94%29.92 "HgN/A
1:20 pm64 °FPartly sunny.22 mph100%29.92 "Hg4 mi
12:20 pm64 °FRain. Partly sunny.24 mph94%29.92 "Hg4 mi
11:50 am66 °FRain. Fog.23 mph94%29.92 "Hg6 mi
11:20 am66 °FLight rain. Partly sunny.12 mph88%29.92 "HgN/A
10:50 am64 °FPartly sunny.14 mph94%29.92 "HgN/A
10:20 am64 °FSunny.18 mph94%29.92 "Hg10 mi
9:50 am64 °FPartly sunny.20 mph94%29.92 "HgN/A
8:50 am64 °FPartly sunny.20 mph88%29.92 "HgN/A
8:20 am64 °FBroken clouds.22 mph88%29.92 "HgN/A
7:50 am64 °FScattered clouds.14 mph88%29.92 "HgN/A
8:50 pm
Tue, Aug 14
66 °FPassing clouds.17 mph88%29.98 "HgN/A
8:20 pm64 °FPartly sunny.16 mph88%29.98 "HgN/A
7:50 pm66 °FPartly sunny.16 mph83%29.98 "HgN/A
7:20 pm66 °FPartly sunny.16 mph83%29.95 "HgN/A
Weather by CustomWeather, © 2018

See weather overview